Starlink 30880

operational
NORAD ID: 58232 Int'l Des: 2023-171 Owner: SPXS Country: US Constellation: starlink
LEOCIRCULAR

About Starlink 30880

Description loading...

Live Position

Loading 3D Globe...

Upcoming Passes

Altitude History

Altitude vs Time

uPlot chart will show altitude changes over time

Two-Line Element Set

1 58232U 23171C 25304.58818757 -.00000211 00000-0 -57762-6 0 9996
2 58232 43.0046 267.6426 0001272 267.4108 92.6588 15.02534325110305
Epoch: Oct 31, 2025 • Age: 24 hours

Current Status

Altitude 562.1 km
Velocity 7.59 km/s
Sub-Earth Point 38.81°N, 123.63°E
Launch Date Nov 8, 2023
Age 1.9 years
Type internet

Technical Details

Classification Payload
Mass 730.00 kg
Dry Mass 700.00 kg
Total Mass 730.00 kg
Length 0.30 m
Diameter 4.10 m
Span 29.00 m
Shape Box + pan
Manufacturer SPXS
Bus Type Starlink V2M
Phase Status In Orbit
Owner/State SPXS/US

Large Constellations

Loading constellations...